[[{"header":{"parameterUnit":"m.s-1","parameterCategory":2,"la1":30.2991,"la2":30.254,"lo1":-89.0895,"lo2":-89.0444,"dy":0.0017,"dx":0.0017,"nx":28,"ny":28,"refTime":"2024-07-11T21:00:00:Z","depth":"0","parameterNumber":2,"parameterNumberName":"U-component_of_CURRENTS"},"data":[0,0,0,0,0,0,0,0,0,0,0,0,0,0,0,0,0,0,0,0,0,0,0,0,0,0,0,0,0,0,0,0,0,0,0,0,0,0,0,0,0,0,0,0,0,0,0,0,0,0,0,0,0,0,0,0,0,0,0.26,0.26,0,0.2594,0.2594,0.2594,0.2594,0.2594,0.2594,0.2594,0.2655,0.2657,0.2659,0,0,0,0,0,0,0,0,0,0,0,0,0,0.2622,0.2622,0.26,0.26,0.26,0.2594,0.2594,0.2594,0.2594,0.2594,0.2594,0.2594,0.2655,0.2657,0.2659,0,0,0,0,0,0,0,0,0,0,0,0,0,0.2615,0.2622,0.2601,0.2599,0.2598,0.2594,0.2594,0.2594,0.2594,0.2594,0.2594,0.2594,0.2654,0.2657,0.2659,0.2675,0,0,0.2667,0.2668,0,0,0,0,0,0,0,0,0.2615,0.2614,0.2599,0.2599,0.2598,0.2594,0.2624,0.2624,0.2594,0.2597,0.2594,0.2594,0.264,0.2644,0.2643,0.2678,0.268,0.2667,0.2668,0.2669,0.267,0,0,0,0,0,0,0,0.2616,0.2615,0.2599,0.2599,0.2598,0.2601,0.26,0.2624,0.2621,0.2597,0.2596,0.2594,0.2641,0.2641,0.2645,0.2681,0.2667,0.2669,0.267,0.2671,0.2809,0.2812,0,0,0,0,0,0,0.2614,0.2615,0.2599,0.2599,0.2605,0.26,0.2599,0.2596,0.2619,0.2622,0.2594,0.2594,0.2637,0.2642,0.2647,0.2704,0.2669,0.2672,0.2673,0.2807,0.281,0.2812,0,0,0,0,0,0,0.2614,0.2612,0.26,0.2606,0.2604,0.26,0.2596,0.2596,0.2597,0.2616,0.262,0.2595,0.2637,0.2644,0.2696,0.2705,0.2673,0.2675,0.2805,0.2808,0.2811,0.2794,0,0,0,0,0,0,0.2615,0.2612,0.261,0.2606,0.2604,0.2597,0.2596,0.2596,0.2595,0.2595,0.2619,0.2624,0.2637,0.2692,0.2698,0.2708,0.2677,0.2802,0.2806,0.281,0.2792,0.2796,0.28,0,0,0,0,0,0.2616,0.2594,0.261,0.2608,0.26,0.2597,0.2596,0.2594,0.2595,0.2595,0.2633,0.2624,0.2722,0.2696,0.2703,0.2713,0.28,0.2805,0.281,0.279,0.2795,0.28,0,0,0,0,0,0,0.2592,0.2593,0.2609,0.2588,0.2599,0.2596,0.2588,0.2595,0.2621,0.2621,0.2649,0.2658,0.2712,0.2724,0.2695,0.2771,0.2761,0.2767,0.2743,0.2749,0.2753,0.2709,0.2679,0,0,0,0,0,0.2591,0.2579,0.2592,0.2577,0.2584,0.2593,0.2591,0.2591,0.261,0.2619,0.2649,0.2689,0.2737,0.2751,0.2794,0.2825,0.2821,0.2842,0.2846,0.2849,0.2823,0.2854,0.2856,0.2828,0.2828,0.2828,0,0,0.2566,0.2574,0.2561,0.2573,0.258,0.2588,0.2592,0.2582,0.2595,0.2624,0.2661,0.2707,0.2755,0.2802,0.2825,0.2809,0.2857,0.2855,0.2857,0.2829,0.2859,0.2861,0.2863,0.2832,0.2831,0.2831,0,0,0.2503,0.2536,0.25,0.2526,0.254,0.2568,0.2569,0.2584,0.26,0.2642,0.268,0.2726,0.2792,0.2822,0.2848,0.29,0.2888,0.2926,0.2893,0.2925,0.2926,0.2926,0.2917,0.2917,0.2915,0.2915,0.2915,0,0.2473,0.246,0.249,0.2484,0.2513,0.2564,0.2559,0.2586,0.2619,0.2633,0.2655,0.2753,0.2796,0.2842,0.2869,0.2902,0.2909,0.2863,0.2924,0.2925,0.2926,0.2917,0.2917,0.2915,0.2915,0.2915,0.2915,0,0.2402,0.2405,0.2396,0.2428,0.2459,0.247,0.2528,0.2561,0.2607,0.2627,0.2686,0.2749,0.2796,0.2833,0.2867,0.2903,0.2902,0.2932,0.2896,0.2927,0.2916,0.2917,0.2915,0.2915,0.2915,0.2915,0,0,0.2325,0.2336,0.2345,0.2363,0.2445,0.2462,0.251,0.2562,0.2574,0.2631,0.2644,0.2741,0.2759,0.2791,0.2839,0.2864,0.289,0.2897,0.2899,0.2858,0.2931,0.2858,0.2851,0.2935,0.2935,0.2936,0.2916,0,0.2278,0.2258,0.2286,0.2312,0.2334,0.2418,0.2456,0.2507,0.2567,0.2597,0.2654,0.2693,0.2749,0.2768,0.2808,0.2878,0.2892,0.289,0.2931,0.2931,0.2839,0.285,0.2698,0.2662,0.2916,0.2916,0.2916,0,0.2234,0.224,0.223,0.2283,0.2297,0.2315,0.2415,0.2444,0.2503,0.2532,0.2573,0.2622,0.2673,0.2719,0.2807,0.2806,0.2859,0.2903,0.2905,0.2834,0.2859,0.2679,0.2653,0.2529,0.2917,0.2917,0.2917,0,0.2218,0.2226,0.2226,0.225,0.2297,0.2306,0.2347,0.2414,0.2428,0.2481,0.2483,0.2558,0.2582,0.267,0.2763,0.2795,0.284,0.2898,0.2869,0.2864,0.2737,0.2719,0.2565,0.2943,0.2943,0.2944,0.2944,0,0.2199,0.2197,0.2208,0.2211,0.2215,0.2269,0.2265,0.2314,0.2346,0.2341,0.2432,0.2436,0.2576,0.2626,0.2725,0.2773,0.281,0.2841,0.2853,0.2728,0.2711,0.26,0.2579,0.2943,0.2943,0.2943,0.2943,0,0.2147,0.2162,0.2156,0.2185,0.2193,0.2195,0.2202,0.2196,0.224,0.2236,0.2245,0.2336,0.2401,0.2511,0.2635,0.2696,0.2682,0.2777,0.2595,0.2586,0.2453,0.2439,0.2317,0.2287,0.2743,0.2741,0.2739,0,0.2091,0.2089,0.2117,0.2108,0.2102,0.2101,0.2092,0.2139,0.2129,0.217,0.2158,0.2217,0.2256,0.2375,0.2485,0.259,0.257,0.2502,0.2542,0.2389,0.2385,0.238,0.2366,0.2368,0.2364,0.236,0.2357,0,0.1992,0.2013,0.2005,0.1997,0.1987,0.1978,0.1969,0.1953,0.1997,0.1994,0.2007,0.2042,0.2145,0.2181,0.2296,0.2362,0.235,0.243,0.2324,0.2102,0.2034,0.2029,0.242,0.2324,0.2327,0.233,0.2332,0.2333,0.19,0.1881,0.1881,0.1858,0.1861,0.1847,0.1807,0.1804,0.1782,0.1764,0.1845,0.1843,0.1889,0.2041,0.2095,0.2015,0.2152,0.1975,0.1977,0.1993,0.1926,0.2218,0.2113,0.2115,0.2116,0.2118,0.2119,0,0.178,0.1766,0.1739,0.1716,0.168,0.1724,0.1708,0.1659,0.1602,0.162,0.1613,0.1573,0.1571,0.1627,0.1596,0.1552,0.1596,0.1502,0.1439,0.1464,0.1739,0.1679,0.1407,0.1408,0.1408,0.1408,0.1408,0.1408,0.1698,0.1648,0.1635,0.1536,0.1523,0.1469,0.1453,0.1416,0.1411,0.133,0.1279,0.128,0.1245,0.1171,0.1082,0.1104,0.1073,0.103,0.1121,0.1255,0.1299,0.1341,0.1275,0.0924,0.0924,0.0787,0.0786,0.0784]},{"header":{"parameterUnit":"m.s-1","parameterCategory":2,"la1":30.2991,"la2":30.254,"lo1":-89.0895,"lo2":-89.0444,"dy":0.0017,"dx":0.0017,"nx":28,"ny":28,"refTime":"2024-07-11T21:00:00:Z","depth":"0","parameterNumber":3,"parameterNumberName":"V-component_of_CURRENTS"},"data":[0,0,0,0,0,0,0,0,0,0,0,0,0,0,0,0,0,0,0,0,0,0,0,0,0,0,0,0,0,0,0,0,0,0,0,0,0,0,0,0,0,0,0,0,0,0,0,0,0,0,0,0,0,0,0,0,0,0,-0.0344,-0.0343,0,-0.0219,-0.0217,-0.0216,-0.0145,-0.0145,-0.0145,-0.0145,-0.0082,-0.008,-0.0078,0,0,0,0,0,0,0,0,0,0,0,0,0,-0.0454,-0.0452,-0.0344,-0.0343,-0.0342,-0.0219,-0.0217,-0.0215,-0.0145,-0.0145,-0.0145,-0.0145,-0.0082,-0.008,-0.0078,0,0,0,0,0,0,0,0,0,0,0,0,0,-0.0373,-0.0452,-0.0345,-0.0294,-0.0288,-0.022,-0.0217,-0.0215,-0.0145,-0.0145,-0.0145,-0.0146,-0.0083,-0.0081,-0.0078,-0.0061,0,0,-0.007,-0.0069,0,0,0,0,0,0,0,0,-0.0378,-0.0369,-0.0303,-0.0297,-0.0291,-0.02,-0.0232,-0.0167,-0.0145,-0.0197,-0.0145,-0.0146,-0.0129,-0.0122,-0.0094,-0.0058,-0.0055,-0.007,-0.0068,-0.0067,-0.0066,0,0,0,0,0,0,0,-0.0383,-0.0373,-0.0292,-0.0301,-0.0294,-0.0254,-0.0243,-0.0219,-0.0163,-0.0192,-0.0188,-0.0178,-0.0126,-0.0097,-0.0092,-0.0055,-0.007,-0.0068,-0.0066,-0.0065,0.0034,0.0035,0,0,0,0,0,0,-0.0408,-0.0379,-0.0296,-0.0288,-0.0338,-0.0253,-0.024,-0.0227,-0.0162,-0.0152,-0.0178,-0.0175,-0.0101,-0.0095,-0.009,-0.0045,-0.0067,-0.0065,-0.0063,0.0033,0.0034,0.0036,0,0,0,0,0,0,-0.041,-0.0401,-0.0301,-0.0333,-0.0318,-0.0252,-0.0237,-0.0225,-0.0198,-0.0151,-0.0142,-0.0165,-0.0101,-0.0094,-0.0055,-0.0044,-0.0064,-0.0061,0.0032,0.0034,0.0035,0.0029,0,0,0,0,0,0,-0.0414,-0.0403,-0.0398,-0.0335,-0.0317,-0.0264,-0.0237,-0.0222,-0.0193,-0.0188,-0.0137,-0.013,-0.01,-0.0059,-0.0053,-0.0041,-0.0059,0.003,0.0033,0.0035,0.0028,0.0031,0.0033,0,0,0,0,0,-0.0418,-0.0395,-0.0398,-0.0388,-0.0314,-0.0264,-0.0251,-0.0202,-0.0193,-0.0178,-0.0135,-0.0132,-0.0042,-0.0056,-0.0049,-0.0036,0.003,0.0032,0.0034,0.0027,0.003,0.0033,0,0,0,0,0,0,-0.0425,-0.0384,-0.0386,-0.035,-0.0322,-0.0253,-0.0226,-0.0208,-0.016,-0.0158,-0.0118,-0.0107,-0.0068,-0.0051,-0.0068,0.0001,-0.0006,-0.0002,-0.0014,-0.0011,-0.0009,-0.0014,-0.0057,0,0,0,0,0,-0.0434,-0.0411,-0.0376,-0.0348,-0.0337,-0.0291,-0.0264,-0.0241,-0.0194,-0.0172,-0.0136,-0.0094,-0.005,-0.0032,0.0006,0.0038,0.0048,0.0052,0.0054,0.0056,0.0058,0.0091,0.0096,0.0044,0.0044,0.0044,0,0,-0.0432,-0.0403,-0.0393,-0.0351,-0.032,-0.029,-0.0273,-0.0237,-0.0208,-0.0176,-0.012,-0.0088,-0.0039,0.0008,0.0026,0.0021,0.0075,0.0059,0.006,0.0061,0.0094,0.0099,0.0103,0.0045,0.0045,0.0045,0,0,-0.0404,-0.0393,-0.0368,-0.0347,-0.0313,-0.0287,-0.0286,-0.0234,-0.0208,-0.0162,-0.0124,-0.0084,-0.0024,0.0021,0.005,0.0084,0.0086,0.0091,0.0097,0.0128,0.0132,0.0136,0.0146,0.015,0.0091,0.0091,0.0091,0,-0.0407,-0.0369,-0.0353,-0.0322,-0.0301,-0.0291,-0.0264,-0.0232,-0.0174,-0.0148,-0.0148,-0.004,-0.0012,0.0059,0.0074,0.0088,0.0097,0.008,0.013,0.0134,0.0138,0.0146,0.0152,0.0091,0.0091,0.0091,0.0091,0,-0.0366,-0.0338,-0.0317,-0.0284,-0.0261,-0.0236,-0.0209,-0.0185,-0.0164,-0.013,-0.0069,-0.0021,0.0042,0.0056,0.0077,0.0126,0.0119,0.0126,0.0117,0.0142,0.015,0.0156,0.0091,0.0091,0.0091,0.0091,0,0,-0.0369,-0.0305,-0.0299,-0.0278,-0.0244,-0.0218,-0.0181,-0.0138,-0.0104,-0.0068,-0.0013,0.0051,0.0063,0.0096,0.0122,0.0146,0.0174,0.0143,0.0145,0.0142,0.0227,0.0214,0.0218,0.0187,0.0188,0.0189,0.0217,0,-0.0347,-0.0286,-0.0259,-0.021,-0.0183,-0.0165,-0.0123,-0.0088,-0.0058,-0.0006,0.0029,0.0088,0.0083,0.0112,0.0134,0.0174,0.019,0.0165,0.0213,0.0214,0.0191,0.0225,0.0279,0.0309,0.0223,0.0223,0.0224,0,-0.032,-0.0283,-0.0232,-0.0169,-0.0156,-0.0128,-0.0074,-0.0035,0.0025,0.0051,0.0094,0.0121,0.017,0.0155,0.0215,0.0198,0.0209,0.0226,0.0227,0.0221,0.0212,0.0274,0.0322,0.0337,0.0233,0.0232,0.0231,0,-0.0327,-0.026,-0.022,-0.0203,-0.0138,-0.011,-0.0075,-0.0017,0.0026,0.0083,0.0117,0.0167,0.0205,0.0227,0.0248,0.0237,0.0302,0.0295,0.029,0.0288,0.0348,0.0349,0.041,0.033,0.033,0.0329,0.0329,0,-0.0307,-0.0269,-0.0222,-0.02,-0.0149,-0.0107,-0.0046,-0.0005,0.0059,0.0119,0.0143,0.0195,0.0225,0.0261,0.0265,0.0294,0.0316,0.0297,0.0302,0.0346,0.0347,0.0372,0.0346,0.033,0.033,0.033,0.033,0,-0.0298,-0.0267,-0.0222,-0.0167,-0.0148,-0.0112,-0.0032,0.0017,0.007,0.0145,0.0165,0.0228,0.0277,0.0294,0.034,0.0326,0.0369,0.035,0.0383,0.0391,0.0387,0.0357,0.0377,0.0454,0.0352,0.0352,0.0352,0,-0.0274,-0.0256,-0.0214,-0.0183,-0.0153,-0.0097,-0.0049,0.0014,0.0068,0.017,0.0211,0.0273,0.0334,0.038,0.0384,0.0393,0.0392,0.0418,0.0407,0.0401,0.0373,0.0337,0.0399,0.0483,0.0484,0.0485,0.0485,0,-0.0246,-0.0246,-0.0215,-0.0157,-0.0112,-0.0057,0.0014,0.0053,0.0138,0.0204,0.0303,0.0358,0.0409,0.0461,0.0452,0.0453,0.0446,0.0432,0.0444,0.0492,0.0444,0.0516,0.0425,0.0493,0.0492,0.0491,0.0491,0.0491,-0.0231,-0.0208,-0.0175,-0.0113,-0.0064,0.0001,0.0057,0.013,0.0219,0.0337,0.0371,0.0476,0.0525,0.0538,0.0527,0.0532,0.0499,0.0532,0.0499,0.0465,0.0535,0.0437,0.0494,0.0493,0.0493,0.0492,0.0492,0,-0.0197,-0.0169,-0.0117,-0.0045,0.0019,0.0036,0.012,0.0181,0.0289,0.0385,0.0481,0.0599,0.0647,0.0654,0.0645,0.0617,0.0641,0.0597,0.0592,0.066,0.0606,0.061,0.0676,0.0676,0.0676,0.0676,0.0675,0.0675,-0.0172,-0.0124,-0.0093,0.0022,0.0077,0.0162,0.021,0.0286,0.0366,0.05,0.0593,0.0662,0.0698,0.066,0.0661,0.0662,0.0695,0.0627,0.0659,0.0629,0.0621,0.0614,0.0616,0.0682,0.0682,0.0788,0.0788,0.0789]}],[{"header":{"parameterUnit":"m.s-1","parameterCategory":2,"la1":30.2991,"la2":30.254,"lo1":-89.0895,"lo2":-89.0444,"dy":0.0017,"dx":0.0017,"nx":28,"ny":28,"refTime":"2024-07-11T21:00:00:Z","depth":"2","parameterNumber":2,"parameterNumberName":"U-component_of_CURRENTS"},"data":[0,0,0,0,0,0,0,0,0,0,0,0,0,0,0,0,0,0,0,0,0,0,0,0,0,0,0,0,0,0,0,0,0,0,0,0,0,0,0,0,0,0,0,0,0,0,0,0,0,0,0,0,0,0,0,0,0,0,0.0039,0.0043,0,0.011,0.0108,0.0105,-0.0015,-0.0015,-0.0015,-0.0015,0.003,0.0031,0.0032,0,0,0,0,0,0,0,0,0,0,0,0,0,-0.0141,-0.0142,0.0038,0.0043,0.0048,0.0111,0.0108,0.0104,-0.0015,-0.0015,-0.0015,-0.0015,0.0029,0.0031,0.0033,0,0,0,0,0,0,0,0,0,0,0,0,0,-0.0106,-0.0142,0.0037,0.0027,0.003,0.0111,0.0108,0.0104,-0.0014,-0.0015,-0.0015,-0.0015,0.0029,0.0031,0.0033,0.0051,0,0,0.0039,0.004,0,0,0,0,0,0,0,0,-0.0109,-0.0106,0.0024,0.0029,0.0032,0.0076,0.0064,0.01,-0.0014,-0.0043,-0.0015,-0.0015,0.0071,0.0069,0.0023,0.0053,0.0055,0.0039,0.004,0.0041,0.0042,0,0,0,0,0,0,0,-0.0111,-0.0108,0.0023,0.003,0.0036,0.0044,0.0042,0.0066,-0.0019,-0.004,-0.0038,0.0038,0.0067,0.0021,0.0024,0.0056,0.0039,0.0041,0.0042,0.0043,0.0129,0.013,0,0,0,0,0,0,-0.0037,-0.0111,0.0022,0.003,0.0008,0.005,0.0047,0.0027,-0.0018,-0.0013,0.0038,0.0033,0.0018,0.0022,0.0026,0.0108,0.0041,0.0043,0.0044,0.0128,0.0129,0.013,0,0,0,0,0,0,-0.0043,-0.003,0.002,0.0001,0.0014,0.0057,0.0034,0.003,0.0087,0.005,0.0045,0.0117,0.0018,0.0023,0.0066,0.0107,0.0044,0.0046,0.0127,0.0128,0.013,0.0233,0,0,0,0,0,0,-0.0051,-0.0037,-0.0028,0.0003,0.0019,0.0127,0.0039,0.0033,0.0149,0.0143,0.0116,0.0112,0.0018,0.0063,0.0068,0.0109,0.0048,0.0125,0.0127,0.0129,0.0229,0.0238,0.0247,0,0,0,0,0,-0.006,-0.0052,-0.0032,-0.001,0.0025,0.0136,0.0139,0.0143,0.0156,0.0186,0.0137,0.0118,0.0078,0.0067,0.0072,0.0114,0.0124,0.0127,0.0129,0.0225,0.0236,0.0246,0,0,0,0,0,0,-0.0123,-0.0057,-0.0036,-0.0009,0.0103,0.0133,0.0159,0.0227,0.0211,0.0205,0.0147,0.0139,0.0177,0.0151,0.014,0.014,0.0095,0.0099,0.0166,0.0177,0.0186,0.0186,0.0049,0,0,0,0,0,-0.0118,-0.0085,0.0003,0.0062,0.0081,0.0152,0.0209,0.0254,0.0274,0.0269,0.0246,0.0209,0.0176,0.0189,0.0144,0.0189,0.0175,0.0213,0.0222,0.023,0.0232,0.025,0.0262,0.0138,0.0138,0.0138,0,0,-0.0094,-0.005,-0.002,0.0061,0.0091,0.0113,0.0169,0.0291,0.032,0.0284,0.0262,0.0259,0.0196,0.0178,0.0198,0.0178,0.0259,0.0233,0.024,0.0237,0.0254,0.0266,0.0277,0.014,0.0139,0.0139,0,0,0.0003,-0.0036,0.0034,0.0054,0.0187,0.0188,0.027,0.0341,0.0353,0.0399,0.0344,0.0385,0.0341,0.0288,0.0259,0.0323,0.0304,0.0328,0.0384,0.0403,0.0414,0.0423,0.0429,0.0438,0.0335,0.0336,0.0336,0,0.0088,0.0077,0.0095,0.0117,0.0119,0.0228,0.0264,0.028,0.0382,0.0412,0.0399,0.0381,0.0365,0.036,0.0349,0.0346,0.0349,0.0349,0.0417,0.0426,0.0433,0.0437,0.0445,0.0341,0.034,0.034,0.0339,0,0.0166,0.0153,0.0172,0.0176,0.0184,0.0244,0.0256,0.0314,0.0357,0.0396,0.0461,0.0431,0.0433,0.0442,0.0405,0.0468,0.0451,0.0427,0.0395,0.0453,0.0452,0.0459,0.0348,0.0347,0.0345,0.0344,0,0,0.0288,0.0277,0.023,0.025,0.0196,0.0242,0.0225,0.0285,0.0341,0.04,0.0458,0.0441,0.0516,0.049,0.0506,0.0534,0.0603,0.0519,0.0518,0.0533,0.0649,0.0629,0.0634,0.0603,0.0605,0.0606,0.063,0,0.0355,0.0369,0.0325,0.0319,0.0282,0.0278,0.0252,0.0311,0.0342,0.0404,0.046,0.0498,0.0504,0.0556,0.0587,0.06,0.0625,0.0598,0.0581,0.058,0.0564,0.0643,0.051,0.052,0.0636,0.0637,0.0638,0,0.0357,0.0327,0.0333,0.0344,0.0333,0.0382,0.0346,0.039,0.0447,0.0464,0.0532,0.0567,0.0642,0.063,0.0688,0.0677,0.0676,0.0674,0.0674,0.0623,0.0575,0.0478,0.0528,0.0649,0.0648,0.0647,0.0647,0,0.0336,0.0322,0.0334,0.0296,0.0311,0.0387,0.0443,0.0448,0.0486,0.0559,0.057,0.0648,0.0709,0.0724,0.0755,0.0726,0.0803,0.0747,0.0718,0.0716,0.058,0.0563,0.0772,0.0772,0.0772,0.0772,0.0772,0,0.0371,0.0336,0.0359,0.0374,0.0377,0.0415,0.054,0.055,0.062,0.0662,0.0668,0.07,0.0741,0.0788,0.0784,0.08,0.0829,0.0746,0.0732,0.0612,0.0599,0.0682,0.0671,0.0773,0.0773,0.0772,0.0772,0,0.0345,0.0366,0.0364,0.0403,0.0417,0.043,0.06,0.0667,0.0711,0.0757,0.0778,0.078,0.0844,0.0867,0.0905,0.0843,0.0848,0.0838,0.0699,0.0669,0.0727,0.0721,0.078,0.078,0.0779,0.0779,0.0779,0,0.04,0.0387,0.0355,0.037,0.0438,0.051,0.0554,0.0655,0.071,0.0801,0.0793,0.0885,0.089,0.0934,0.0875,0.0852,0.0908,0.0705,0.0614,0.0753,0.0733,0.0728,0.0722,0.047,0.0467,0.0465,0.0463,0,0.0423,0.0387,0.0401,0.0383,0.0449,0.0477,0.0614,0.0648,0.0761,0.0768,0.0843,0.0884,0.0887,0.0816,0.078,0.0735,0.0696,0.0658,0.0857,0.0497,0.0465,0.0444,0.0448,0.0444,0.0446,0.0447,0.0448,0.0449,0.0431,0.0403,0.0445,0.0428,0.0457,0.0502,0.0603,0.0697,0.0767,0.0811,0.0845,0.0804,0.0676,0.0557,0.0562,0.0571,0.0585,0.0496,0.05,0.0507,0.0476,0.0447,0.0415,0.0417,0.0418,0.042,0.0421,0,0.0391,0.0423,0.0496,0.0512,0.0544,0.0551,0.0637,0.0693,0.0758,0.0723,0.0761,0.0518,0.0415,0.041,0.0358,0.0304,0.0274,0.0322,0.0268,0.0284,0.0299,0.0258,0.0139,0.0139,0.014,0.014,0,0,0.0391,0.0438,0.049,0.0579,0.0609,0.0674,0.0724,0.0717,0.0696,0.0628,0.0545,0.0388,0.0299,0.0168,0.0136,0.0184,0.0247,0.0167,0.0371,0.0321,0.0337,0.0353,0.0301,0,0,0,0,0]},{"header":{"parameterUnit":"m.s-1","parameterCategory":2,"la1":30.2991,"la2":30.254,"lo1":-89.0895,"lo2":-89.0444,"dy":0.0017,"dx":0.0017,"nx":28,"ny":28,"refTime":"2024-07-11T21:00:00:Z","depth":"2","parameterNumber":3,"parameterNumberName":"V-component_of_CURRENTS"},"data":[0,0,0,0,0,0,0,0,0,0,0,0,0,0,0,0,0,0,0,0,0,0,0,0,0,0,0,0,0,0,0,0,0,0,0,0,0,0,0,0,0,0,0,0,0,0,0,0,0,0,0,0,0,0,0,0,0,0,0.0011,0.0009,0,0.005,0.0052,0.0054,0.0088,0.0086,0.0085,0.0083,-0.0022,-0.0023,-0.0025,0,0,0,0,0,0,0,0,0,0,0,0,0,0.0037,0.0037,0.0011,0.0009,0.0008,0.0049,0.0052,0.0055,0.0088,0.0086,0.0084,0.0083,-0.0022,-0.0023,-0.0025,0,0,0,0,0,0,0,0,0,0,0,0,0,0.0066,0.0038,0.0011,0.0014,0.0013,0.0049,0.0052,0.0055,0.0089,0.0086,0.0084,0.0082,-0.0021,-0.0023,-0.0025,0.0011,0,0,-0.0031,-0.0032,0,0,0,0,0,0,0,0,0.0064,0.0068,0.0015,0.0013,0.0012,0.0043,0.0021,0.0026,0.0089,0.0083,0.0083,0.0081,-0.0026,-0.0028,0.0018,0.0006,0.0001,-0.0031,-0.0032,-0.0033,-0.0034,0,0,0,0,0,0,0,0.0062,0.0066,0.0048,0.0013,0.0011,0.0035,0.0039,0.0025,0.0055,0.0083,0.008,0.0051,-0.0025,0.002,0.0015,-0.0,-0.0031,-0.0033,-0.0034,-0.0035,-0.0091,-0.0091,0,0,0,0,0,0,0.0013,0.0064,0.0046,0.0047,0.0008,0.0035,0.004,0.0053,0.0059,0.0052,0.0053,0.0052,0.0025,0.0017,0.001,-0.0012,-0.0033,-0.0035,-0.0036,-0.0091,-0.0091,-0.0091,0,0,0,0,0,0,0.0015,0.0013,0.0045,0.0037,0.0039,0.0034,0.0051,0.0054,0.0045,0.0033,0.0028,0.0029,0.0022,0.0013,-0.0027,-0.0015,-0.0036,-0.0038,-0.009,-0.0091,-0.0091,-0.0019,0,0,0,0,0,0,0.0016,0.0015,0.0006,0.0035,0.0037,0.004,0.005,0.0056,0.0023,0.0022,0.0011,0.0003,0.002,-0.0024,-0.0029,-0.0018,-0.0039,-0.009,-0.009,-0.0091,-0.0021,-0.0017,-0.0013,0,0,0,0,0,0.0018,0.0042,0.0007,0.0002,0.0028,0.0037,0.0045,0.0046,0.0022,0.0029,0.0018,0.0001,-0.0031,-0.0025,-0.0031,-0.0021,-0.009,-0.009,-0.0091,-0.0022,-0.0017,-0.0013,0,0,0,0,0,0,0.0055,0.0046,0.0009,0.0027,-0.0,0.0034,0.0047,0.0016,0.0023,0.0005,-0.0001,-0.0007,-0.0033,-0.0051,-0.0045,-0.0043,-0.0065,-0.0067,-0.0011,-0.0007,-0.0003,0.002,-0.0041,0,0,0,0,0,0.0047,0.004,0.0031,0.0016,0.003,0.0019,0.0015,-0.0006,-0.0007,-0.0005,-0.0008,-0.0023,-0.0026,-0.0043,-0.0043,-0.0051,-0.0062,-0.0053,-0.0049,-0.0045,-0.0033,-0.0051,-0.0047,-0.0094,-0.0094,-0.0094,0,0,0.0043,0.0027,0.002,0.0015,0.0023,0.006,0.002,0.0002,0.0011,-0.0024,0.0009,-0.0016,-0.0029,-0.0013,-0.0028,-0.0037,-0.0036,-0.0046,-0.0042,-0.0032,-0.0052,-0.0047,-0.0042,-0.0094,-0.0094,-0.0094,0,0,0.0038,0.004,0.0044,0.0056,0.0019,0.0038,0.0011,0.0025,0.0025,0.0016,0.0008,-0.0018,-0.0021,-0.0003,-0.0003,0.0006,-0.0017,-0.0013,0.0031,0.0013,0.0018,0.0022,0.0032,0.0036,-0.0008,-0.0008,-0.0008,0,0.0006,0.0035,0.0037,0.0068,0.0084,0.0028,0.0062,0.0074,0.0051,0.0051,0.0021,0.0023,0.0,0.0025,0.0042,0.0019,0.0008,0.0023,0.0022,0.0025,0.0027,0.0037,0.004,-0.0005,-0.0005,-0.0006,-0.0006,0,0.0035,0.0056,0.0078,0.0104,0.0135,0.0138,0.0162,0.0159,0.013,0.0124,0.0109,0.0092,0.0088,0.0077,0.0069,0.0078,0.0066,0.003,0.0019,0.0037,0.0045,0.0048,0.0,-0.0001,-0.0002,-0.0003,0,0,-0.001,0.0064,0.0083,0.0092,0.0152,0.0169,0.0223,0.0244,0.0246,0.022,0.0234,0.0228,0.0183,0.0178,0.0147,0.0136,0.015,0.0095,0.0092,0.0122,0.0129,0.0175,0.0181,0.0108,0.0109,0.0109,0.0136,0,-0.0007,0.0068,0.011,0.0169,0.0234,0.0245,0.0308,0.0315,0.0307,0.0316,0.0272,0.0266,0.0232,0.0206,0.0197,0.0151,0.0156,0.0147,0.0092,0.0091,0.0143,0.0185,0.0139,0.0163,0.0138,0.0138,0.0138,0,0.0034,0.0087,0.0165,0.022,0.0251,0.0257,0.033,0.0357,0.038,0.0379,0.0366,0.0331,0.0321,0.0267,0.0235,0.0227,0.0193,0.016,0.0159,0.0179,0.0141,0.0134,0.0168,0.0142,0.0142,0.0142,0.0141,0,0.0039,0.0121,0.0169,0.0203,0.0281,0.0274,0.0289,0.0351,0.0373,0.0389,0.0397,0.0385,0.0351,0.0315,0.0257,0.0239,0.0215,0.0177,0.0199,0.0202,0.0144,0.0142,0.0164,0.0164,0.0164,0.0164,0.0164,0,0.0041,0.0094,0.0148,0.0167,0.0214,0.0266,0.0269,0.0309,0.0344,0.0377,0.0392,0.0409,0.0353,0.0332,0.0286,0.0265,0.0239,0.0231,0.0216,0.017,0.017,0.0124,0.0118,0.0165,0.0165,0.0165,0.0165,0,0.0045,0.0087,0.0131,0.0182,0.0199,0.022,0.023,0.0249,0.0298,0.034,0.0345,0.0403,0.0396,0.0361,0.0306,0.03,0.027,0.0265,0.0237,0.0221,0.0268,0.0265,0.0312,0.0314,0.0316,0.0317,0.0318,0,0.0036,0.0073,0.0125,0.0143,0.0133,0.0159,0.0193,0.0229,0.0256,0.034,0.0369,0.0385,0.0434,0.0415,0.0382,0.0356,0.0304,0.0305,0.0273,0.0305,0.0285,0.028,0.0276,0.0222,0.0222,0.0222,0.0222,0,0.0031,0.0043,0.0058,0.0127,0.0127,0.0173,0.0187,0.0209,0.0277,0.0336,0.042,0.0459,0.0472,0.0443,0.0422,0.0394,0.0312,0.0313,0.0329,0.0206,0.0225,0.0204,0.0201,0.0224,0.0224,0.0224,0.0224,0.0224,-0.0001,0.0012,0.0034,0.0092,0.0127,0.0189,0.0199,0.0247,0.0318,0.0414,0.045,0.0504,0.0423,0.041,0.0382,0.0365,0.038,0.0321,0.0317,0.0313,0.0312,0.0335,0.0356,0.0356,0.0357,0.0357,0.0358,0,-0.0003,0.0011,0.0029,0.0083,0.0133,0.0165,0.023,0.0266,0.0357,0.042,0.0501,0.0422,0.0411,0.0339,0.033,0.034,0.0314,0.0308,0.0232,0.0231,0.023,0.0221,0.0242,0.0242,0.0242,0.0242,0,0,-0.0008,0.0004,0.0025,0.0096,0.0139,0.0201,0.0239,0.0321,0.037,0.0435,0.044,0.0459,0.0371,0.0296,0.0266,0.0262,0.0258,0.0267,0.0357,0.027,0.0269,0.0233,0.022,0,0,0,0,0]}],[{"header":{"parameterUnit":"m.s-1","parameterCategory":2,"la1":30.2991,"la2":30.254,"lo1":-89.0895,"lo2":-89.0444,"dy":0.0017,"dx":0.0017,"nx":28,"ny":28,"refTime":"2024-07-11T21:00:00:Z","depth":"4","parameterNumber":2,"parameterNumberName":"U-component_of_CURRENTS"},"data":[0,0,0,0,0,0,0,0,0,0,0,0,0,0,0,0,0,0,0,0,0,0,0,0,0,0,0,0,0,0,0,0,0,0,0,0,0,0,0,0,0,0,0,0,0,0,0,0,0,0,0,0,0,0,0,0,0,0,-0.0681,-0.0682,0,-0.0737,-0.0737,-0.0738,-0.0759,-0.0759,-0.0759,-0.0759,-0.0809,-0.0811,-0.0812,0,0,0,0,0,0,0,0,0,0,0,0,0,-0.0618,-0.0618,-0.0681,-0.0682,-0.0683,-0.0737,-0.0737,-0.0738,-0.0759,-0.0759,-0.0759,-0.0759,-0.0809,-0.081,-0.0812,0,0,0,0,0,0,0,0,0,0,0,0,0,-0.0654,-0.0619,-0.0681,-0.0702,-0.0704,-0.0737,-0.0737,-0.0738,-0.0759,-0.0759,-0.0759,-0.0759,-0.0808,-0.081,-0.0812,-0.0823,0,0,-0.0818,-0.0819,0,0,0,0,0,0,0,0,-0.0652,-0.0656,-0.0698,-0.07,-0.0703,-0.0743,-0.0734,-0.0767,-0.0759,-0.0735,-0.0759,-0.0759,-0.0788,-0.0792,-0.0799,-0.0825,-0.0827,-0.0818,-0.082,-0.082,-0.0821,0,0,0,0,0,0,0,-0.0649,-0.0654,-0.0701,-0.0699,-0.0702,-0.0717,-0.0721,-0.074,-0.0759,-0.0738,-0.074,-0.075,-0.0789,-0.0797,-0.08,-0.0828,-0.0818,-0.082,-0.0821,-0.0822,-0.0945,-0.0947,0,0,0,0,0,0,-0.0646,-0.0652,-0.0699,-0.0703,-0.068,-0.0718,-0.0723,-0.0728,-0.0759,-0.0764,-0.075,-0.0751,-0.0793,-0.0798,-0.0802,-0.0922,-0.082,-0.0822,-0.0823,-0.0943,-0.0946,-0.0948,0,0,0,0,0,0,-0.0644,-0.065,-0.0697,-0.0681,-0.0688,-0.0719,-0.0725,-0.0729,-0.0762,-0.0769,-0.0773,-0.078,-0.0794,-0.0799,-0.0841,-0.092,-0.0823,-0.0825,-0.0941,-0.0944,-0.0947,-0.1095,0,0,0,0,0,0,-0.0642,-0.0648,-0.0669,-0.068,-0.0689,-0.0732,-0.0725,-0.073,-0.0767,-0.077,-0.0796,-0.0799,-0.0794,-0.0838,-0.0843,-0.0921,-0.0826,-0.0938,-0.0942,-0.0946,-0.1087,-0.1102,-0.1116,0,0,0,0,0,-0.064,-0.0654,-0.0669,-0.0676,-0.0709,-0.0733,-0.074,-0.076,-0.0769,-0.0788,-0.0808,-0.08,-0.0867,-0.0841,-0.0846,-0.0927,-0.0936,-0.0941,-0.0946,-0.1081,-0.1099,-0.1115,0,0,0,0,0,0,-0.0633,-0.0658,-0.0675,-0.0696,-0.0725,-0.0738,-0.0758,-0.0777,-0.0808,-0.081,-0.082,-0.0825,-0.089,-0.0879,-0.0851,-0.097,-0.0903,-0.0909,-0.1004,-0.1022,-0.1036,-0.1053,-0.0828,0,0,0,0,0,-0.0643,-0.0666,-0.0689,-0.0714,-0.0723,-0.0749,-0.0768,-0.078,-0.0802,-0.0817,-0.0849,-0.0875,-0.091,-0.0941,-0.0954,-0.1022,-0.0978,-0.1077,-0.1091,-0.1103,-0.1119,-0.1105,-0.1119,-0.0964,-0.0964,-0.0964,0,0,-0.065,-0.0668,-0.0683,-0.0716,-0.0733,-0.0755,-0.076,-0.0786,-0.0818,-0.0817,-0.0883,-0.0918,-0.0933,-0.1007,-0.1038,-0.1016,-0.1123,-0.1109,-0.1121,-0.1129,-0.1111,-0.1126,-0.114,-0.0967,-0.0966,-0.0966,0,0,-0.0664,-0.0686,-0.0707,-0.0725,-0.0758,-0.0774,-0.0789,-0.0826,-0.0856,-0.0922,-0.0934,-0.1035,-0.107,-0.1132,-0.1157,-0.126,-0.1185,-0.1251,-0.1361,-0.1348,-0.1361,-0.1371,-0.1327,-0.1332,-0.1275,-0.1276,-0.1276,0,-0.0676,-0.0699,-0.072,-0.0736,-0.0755,-0.0786,-0.0806,-0.0839,-0.0897,-0.0942,-0.0955,-0.1107,-0.1145,-0.1262,-0.1314,-0.1303,-0.124,-0.1301,-0.1367,-0.1377,-0.1385,-0.1337,-0.1341,-0.1283,-0.1282,-0.1282,-0.1281,0,-0.0694,-0.072,-0.0727,-0.0764,-0.0789,-0.0808,-0.0846,-0.0897,-0.0956,-0.1013,-0.1151,-0.1238,-0.1344,-0.1385,-0.1391,-0.1496,-0.1412,-0.1373,-0.1326,-0.141,-0.1353,-0.1355,-0.1294,-0.1291,-0.1289,-0.1287,0,0,-0.0693,-0.0736,-0.0741,-0.0762,-0.08,-0.0821,-0.0876,-0.0951,-0.1042,-0.1134,-0.1268,-0.1407,-0.1496,-0.1531,-0.1585,-0.1615,-0.1657,-0.1531,-0.1527,-0.149,-0.1576,-0.1411,-0.1395,-0.1599,-0.16,-0.1601,-0.1509,0,-0.0705,-0.0736,-0.0763,-0.0805,-0.0815,-0.086,-0.093,-0.1004,-0.1113,-0.1253,-0.1371,-0.1507,-0.1532,-0.1632,-0.1675,-0.1648,-0.1667,-0.1683,-0.1496,-0.1491,-0.1338,-0.1395,-0.1606,-0.151,-0.151,-0.151,-0.151,0,-0.0708,-0.0726,-0.0771,-0.0832,-0.0848,-0.0923,-0.1053,-0.112,-0.1291,-0.1382,-0.1547,-0.1609,-0.1737,-0.1734,-0.1742,-0.1727,-0.1678,-0.1645,-0.1638,-0.1436,-0.133,-0.1408,-0.1512,-0.1512,-0.1511,-0.1511,-0.1511,0,-0.0679,-0.0729,-0.0774,-0.0787,-0.0873,-0.0958,-0.1044,-0.1204,-0.1279,-0.1496,-0.1572,-0.1713,-0.1783,-0.1757,-0.1713,-0.1705,-0.1658,-0.1631,-0.1437,-0.1422,-0.1532,-0.1522,-0.1624,-0.1624,-0.1624,-0.1625,-0.1625,0,-0.0664,-0.0691,-0.0798,-0.0818,-0.0913,-0.0999,-0.1167,-0.1267,-0.1456,-0.1527,-0.1673,-0.1699,-0.1776,-0.1746,-0.1711,-0.1565,-0.1646,-0.146,-0.1396,-0.1594,-0.1592,-0.1532,-0.1522,-0.1621,-0.1622,-0.1622,-0.1623,0,-0.0625,-0.0681,-0.0731,-0.0857,-0.0906,-0.1004,-0.119,-0.1287,-0.1478,-0.1577,-0.1616,-0.1674,-0.1558,-0.1598,-0.1536,-0.152,-0.1432,-0.1361,-0.1562,-0.1509,-0.1204,-0.1204,-0.1125,-0.1119,-0.1114,-0.1109,-0.1105,0,-0.0607,-0.0635,-0.0745,-0.0789,-0.0876,-0.1027,-0.1095,-0.1288,-0.1343,-0.148,-0.1449,-0.1427,-0.1421,-0.1213,-0.1264,-0.1196,-0.1182,-0.1207,-0.1241,-0.1212,-0.1158,-0.1166,-0.1172,-0.1097,-0.1095,-0.1094,-0.1092,0,-0.0568,-0.0632,-0.0677,-0.0755,-0.085,-0.0897,-0.1013,-0.1022,-0.1176,-0.1345,-0.1231,-0.1211,-0.1077,-0.1008,-0.0996,-0.0948,-0.1246,-0.115,-0.1161,-0.1193,-0.1176,-0.1129,-0.1142,-0.1074,-0.1076,-0.1078,-0.1079,0,-0.0551,-0.0574,-0.0644,-0.0711,-0.0778,-0.0744,-0.0816,-0.0814,-0.0874,-0.1016,-0.0927,-0.0921,-0.097,-0.0866,-0.0825,-0.0801,-0.0777,-0.0843,-0.087,-0.0891,-0.0868,-0.0816,-0.0549,0,0,0,0,0,-0.0521,-0.0529,-0.0577,-0.0604,-0.0649,-0.0685,-0.0717,-0.077,-0.0878,-0.0745,-0.0862,-0.0717,-0.0666,-0.0638,-0.0548,-0.0697,-0.0783,-0.0603,-0.0873,-0.0969,-0.0991,-0.0991,0,0,0,0,0,0,-0.0495,-0.0538,-0.0547,-0.0502,-0.0495,-0.0502,-0.0515,-0.0568,-0.0482,-0.0607,-0.0506,-0.0706,-0.0573,-0.0673,-0.0535,-0.0547,-0.0713,-0.0638,-0.0637,-0.0957,-0.0977,-0.0994,-0.1002,0,0,0,0,0]},{"header":{"parameterUnit":"m.s-1","parameterCategory":2,"la1":30.2991,"la2":30.254,"lo1":-89.0895,"lo2":-89.0444,"dy":0.0017,"dx":0.0017,"nx":28,"ny":28,"refTime":"2024-07-11T21:00:00:Z","depth":"4","parameterNumber":3,"parameterNumberName":"V-component_of_CURRENTS"},"data":[0,0,0,0,0,0,0,0,0,0,0,0,0,0,0,0,0,0,0,0,0,0,0,0,0,0,0,0,0,0,0,0,0,0,0,0,0,0,0,0,0,0,0,0,0,0,0,0,0,0,0,0,0,0,0,0,0,0,0.0201,0.02,0,0.0201,0.0201,0.0202,0.0255,0.0256,0.0256,0.0257,0.031,0.0311,0.0311,0,0,0,0,0,0,0,0,0,0,0,0,0,0.0252,0.0251,0.0201,0.02,0.02,0.0201,0.0201,0.0202,0.0254,0.0256,0.0257,0.0258,0.031,0.0311,0.0311,0,0,0,0,0,0,0,0,0,0,0,0,0,0.0243,0.0251,0.0201,0.0223,0.0224,0.0201,0.0201,0.0202,0.0254,0.0256,0.0257,0.0258,0.031,0.0311,0.0312,0.0289,0,0,0.0314,0.0314,0,0,0,0,0,0,0,0,0.0244,0.0242,0.022,0.0221,0.0223,0.0225,0.0239,0.0232,0.0254,0.0248,0.0257,0.0259,0.0282,0.0286,0.0289,0.0291,0.0293,0.0314,0.0315,0.0315,0.0315,0,0,0,0,0,0,0,0.0244,0.0242,0.0206,0.0219,0.0221,0.0234,0.0235,0.0238,0.0262,0.0249,0.0251,0.0243,0.0285,0.0288,0.029,0.0294,0.0314,0.0315,0.0315,0.0316,0.0314,0.0314,0,0,0,0,0,0,0.0232,0.0242,0.0206,0.0205,0.0231,0.0231,0.0233,0.0227,0.0261,0.0266,0.0242,0.0245,0.0286,0.0289,0.0293,0.0305,0.0315,0.0316,0.0316,0.0315,0.0314,0.0313,0,0,0,0,0,0,0.0233,0.0229,0.0206,0.022,0.0218,0.0229,0.0222,0.0226,0.0242,0.0254,0.0262,0.0254,0.0287,0.0291,0.0298,0.0306,0.0316,0.0317,0.0315,0.0314,0.0314,0.0306,0,0,0,0,0,0,0.0235,0.0229,0.023,0.0219,0.0216,0.0195,0.022,0.0225,0.0231,0.0237,0.0267,0.0273,0.0288,0.0297,0.0299,0.0308,0.0318,0.0316,0.0315,0.0314,0.0307,0.0305,0.0303,0,0,0,0,0,0.0237,0.0221,0.023,0.0226,0.0213,0.0194,0.0194,0.021,0.0231,0.0232,0.0251,0.0273,0.0292,0.0296,0.0299,0.0309,0.0316,0.0315,0.0314,0.0308,0.0305,0.0303,0,0,0,0,0,0,0.0235,0.0224,0.0234,0.0215,0.0208,0.0201,0.0196,0.0211,0.0227,0.0234,0.0261,0.0267,0.0273,0.0285,0.0289,0.0303,0.0309,0.0309,0.0304,0.0301,0.03,0.0334,0.0318,0,0,0,0,0,0.0234,0.0223,0.0216,0.0198,0.0195,0.02,0.0197,0.0205,0.0209,0.0219,0.024,0.0257,0.0266,0.0281,0.0283,0.0291,0.033,0.0299,0.0297,0.0296,0.0323,0.0392,0.04,0.0309,0.0309,0.0309,0,0,0.0224,0.0216,0.021,0.0197,0.0194,0.0173,0.0203,0.019,0.0177,0.022,0.0218,0.0245,0.0262,0.0269,0.0275,0.0287,0.0332,0.0294,0.0293,0.0322,0.0392,0.0401,0.0409,0.0309,0.0309,0.0309,0,0,0.0189,0.0195,0.0178,0.0167,0.0156,0.0155,0.0153,0.0153,0.0163,0.016,0.0189,0.0237,0.0231,0.0272,0.0284,0.0276,0.0311,0.026,0.0294,0.0359,0.0368,0.0377,0.0404,0.0416,0.0272,0.0272,0.0272,0,0.0183,0.0157,0.0168,0.0143,0.0126,0.0145,0.0117,0.0118,0.0123,0.0127,0.0154,0.0203,0.0241,0.0271,0.029,0.0279,0.0303,0.0302,0.0361,0.037,0.0379,0.0406,0.0419,0.0271,0.0271,0.0271,0.0271,0,0.0135,0.0115,0.0097,0.0076,0.0063,0.0037,0.0034,0.0034,0.0055,0.0066,0.0102,0.0175,0.0224,0.0239,0.0276,0.0349,0.0337,0.0342,0.0373,0.0389,0.0414,0.0428,0.027,0.027,0.0271,0.0271,0,0,0.0115,0.0077,0.0069,0.0048,0.0026,0.0005,-0.0021,-0.0032,-0.0042,0.001,0.0032,0.0117,0.0195,0.022,0.0283,0.0371,0.0472,0.0401,0.0404,0.0441,0.0589,0.0405,0.0402,0.0485,0.0488,0.049,0.057,0,0.0077,0.0022,0.0013,-0.0047,-0.0076,-0.0076,-0.0102,-0.011,-0.0094,-0.0069,0.0037,0.0085,0.0168,0.023,0.033,0.0423,0.0512,0.0449,0.0559,0.0562,0.0408,0.0413,0.05,0.058,0.0583,0.0585,0.0587,0,0.0037,0.0003,-0.0055,-0.0106,-0.0117,-0.0146,-0.0177,-0.0191,-0.0162,-0.013,-0.0043,0.0024,0.0173,0.0252,0.0449,0.0398,0.0518,0.0598,0.0602,0.0452,0.0404,0.0569,0.0612,0.061,0.0608,0.0606,0.0605,0,0.0016,-0.0046,-0.0092,-0.0113,-0.0163,-0.0185,-0.0197,-0.0205,-0.0216,-0.0139,-0.0117,0.0023,0.0119,0.0285,0.0441,0.0469,0.0624,0.0671,0.0612,0.0599,0.075,0.0741,0.084,0.084,0.084,0.084,0.0839,0,-0.0022,-0.0063,-0.0104,-0.0135,-0.0194,-0.0203,-0.0248,-0.0241,-0.0217,-0.0226,-0.0116,-0.0085,0.0143,0.0233,0.0408,0.0502,0.0594,0.0624,0.0613,0.0736,0.0724,0.0758,0.0747,0.0842,0.0842,0.0841,0.0841,0,-0.0045,-0.007,-0.0135,-0.0189,-0.0209,-0.0243,-0.0284,-0.0312,-0.0271,-0.0267,-0.0229,-0.0144,-0.0047,0.0102,0.0335,0.042,0.0555,0.0576,0.0644,0.0634,0.0511,0.0499,0.0552,0.0547,0.0542,0.0538,0.0534,0,-0.006,-0.0093,-0.0175,-0.022,-0.0248,-0.0296,-0.0336,-0.0325,-0.0343,-0.0322,-0.0315,-0.0252,-0.0188,-0.0013,0.014,0.0354,0.0404,0.0476,0.0575,0.05,0.0486,0.0481,0.0476,0.0527,0.0525,0.0524,0.0523,0,-0.0098,-0.0125,-0.0182,-0.0264,-0.0321,-0.0395,-0.0432,-0.0428,-0.0412,-0.0405,-0.036,-0.0283,-0.023,-0.0075,0.0032,0.0213,0.0429,0.0429,0.0444,0.0537,0.047,0.0459,0.046,0.0506,0.0509,0.051,0.0511,0,-0.0127,-0.0176,-0.0242,-0.0305,-0.0393,-0.0449,-0.0463,-0.0468,-0.0467,-0.0406,-0.0416,-0.0326,-0.0272,-0.0157,-0.0046,0.006,0.0149,0.0269,0.0295,0.0315,0.0199,0.0076,-0.0012,0,0,0,0,0,-0.0157,-0.0203,-0.0276,-0.0352,-0.0434,-0.0474,-0.0522,-0.0519,-0.0493,-0.0457,-0.0416,-0.0361,-0.0238,-0.0201,-0.0114,-0.0135,0.0145,-0.0034,0.0294,0.0413,0.0432,0.0317,0,0,0,0,0,0,-0.0187,-0.0256,-0.0278,-0.0367,-0.0413,-0.0504,-0.0524,-0.051,-0.0472,-0.0432,-0.0364,-0.0339,-0.0225,-0.0276,-0.011,-0.0092,0.0129,0.0014,0.0016,0.0402,0.042,0.0435,0.0324,0,0,0,0,0]}]]